World > North America > United States > Oregon

Gales Creek, Oregon Regional Weather

Lat: 45.58N, Lon: 123.22W
Wx Zone: ORZ006Web Search

Ads allow us to feed your daily addiction for the world's greatest weather information. We're determined to offer quality sponsors, in the least annoying way possible.

Feedback


°F Click to change Gales Creek hourly weather to Imperial units.Click to change Gales Creek hourly weather to Metric units. °C
Gales Creek Weather Map
UTC Time: 5/17/2021, 00:19
Your Time:

Gales Creek, OR Regional Weather

Expires:202105170000;;227180
ASUS46 KPQR 162310
RWROR 

OREGON REGIONAL WEATHER ROUNDUP
NATIONAL WEATHER SERVICE PORTLAND OR
400 PM PDT SUN MAY 16 2021

NOTE: "FAIR" INDICATES FEW OR NO CLOUDS BELOW 12,000 FEET WITH
NO SIGNIFICANT WEATHER AND/OR OBSTRUCTIONS TO VISIBILITY.


ORZ001>013-170000-
NORTHWEST OREGON

  
CITY           SKY/WX    TMP DP  RH WIND       PRES   REMARKS
ASTORIA        CLOUDY    58  50  75 NW12      30.00F                  
TILLAMOOK      SUNNY     61  50  67 NW12      30.01F                  
NEWPORT        CLOUDY    52  48  87 NW13      30.04S                  
FLORENCE       PTSUNNY   55  48  77 NW21G30   29.97F                  
PORTLAND       MOSUNNY   82  46  28 NW8       29.88F                  
VANCOUVER WA   SUNNY     82  46  28 VRB5G17   29.88F                  
SCAPPOOSE      SUNNY     82  45  27 N14       29.87F                  
HILLSBORO      SUNNY     82  52  35 VRB7      29.88F                  
AURORA         SUNNY     82  46  28 N6        29.90F                  
MCMINNVILLE    SUNNY     80  52  37 SW7       29.88F                  
SALEM          SUNNY     83  44  25 N7        29.88F                  
CORVALLIS      SUNNY    N/A N/A N/A NW13      29.90F                  
EUGENE         SUNNY     81  50  33 NE10      29.89F                  
CRESWELL       SUNNY     81  45  28 NW13      29.89F                  
$$


SKY/WX - Weather  TMP - Temperature  DP - Dew Point  RH - Relative Humidity
WIND - Wind Direction/Speed PRES - Barometric Pressure VSB - Visibility
WCI - Wind Chill Index E13G22 Wind - East Wind 13 mph/Gusts of 22 mph